Flag for Poland Weather past 2 weeks in Białystok, Poland

Now
73 °F

Passing clouds.


Feels Like: 77 °F
Forecast: 49 / 79 °F
Wind: 6 mph from West

Location: Bialystok

Current Time: Aug 29, 2015 at 5:25:44 PM

Latest Report: Aug 29, 2015 at 4:00 PM


Visibility: 25 mi

Pressure: 30.23 "Hg

Humidity: 36%

Dew point: 45 °F

Location of BiałystokLocation

Historic Weather in Białystok — Graph

°F

Białystok temperature yesterday

Maximum temperature yesterday: 82 °F (at 1:00 PM)
Minimum temperature yesterday: 58 °F (at 1:00 AM)
Average temperature yesterday: 71 °F

Past Weeks' High & Low Weather Summary

 TemperatureHumidityPressure
High86 °F (Aug 25, 3:00 PM)98% (Aug 23, 2:00 AM)30.41 "Hg (Aug 23, 2:00 AM)
Low42 °F (Aug 21, 5:00 AM)24% (Aug 16, 2:00 PM)29.84 "Hg (Aug 15, 6:00 PM)
Average66 °F57%30.11 "Hg
* Reported Aug 14 2:00 PM — Aug 29 2:00 PM, Białystok, Weather by CustomWeather, © 2015

Note: Actual official high and low records may vary slightly from our data, if they occured in-between our weather recording intervals... More about our weather records

Advertising

Białystok weather history for previous 24 hours

 ConditionsComfort  
Time TempWeatherWind HumidityBarometerVisibility
2:00 PM
Sat, Aug 29
72 °FScattered clouds.3 mph37%30.24 "Hg22 mi
11:00 AM67 °FPassing clouds.3 mph48%30.24 "Hg25 mi
10:00 AM65 °FPassing clouds.3 mph56%30.23 "Hg19 mi
9:00 AM62 °FScattered clouds.3 mph83%30.22 "Hg14 mi
7:00 AM58 °FScattered clouds.1 mph97%30.20 "Hg17 mi
6:00 AM54 °FFog.1 mph94%30.18 "Hg7 mi
5:00 AM58 °FPassing clouds.1 mph92%30.17 "Hg31 mi
3:00 AM58 °FPassing clouds.1 mph88%30.15 "Hg31 mi
2:00 AM59 °FPassing clouds.1 mph84%30.13 "Hg31 mi
1:00 AM62 °FPassing clouds.2 mph74%30.11 "Hg31 mi
11:00 PM
Fri, Aug 28
64 °FOvercast.2 mph85%30.08 "Hg31 mi
9:00 PM66 °FPassing clouds.3 mph82%30.05 "Hg31 mi
8:00 PM68 °FOvercast.5 mph82%30.04 "Hg22 mi
7:00 PM73 °FOvercast.3 mph67%30.00 "Hg19 mi
6:00 PM74 °FOvercast.2 mph66%29.99 "Hg10 mi
5:00 PM75 °FOvercast.3 mph63%29.97 "Hg11 mi
Weather by CustomWeather, © 2015

See weather overviewHow to use our weather pages